STARLINK-32230, 60366

Orbit data source: Space-Track

STARLINK-32230, 60366 is a payload satellite owned by SpaceX/Seattle (US) in LEO that was launched on Sun, 04 Aug 2024 UTC via an FALCON 9 launch vehicle from the Air Force Western Test Range (AFWTR). Payload-class satellites include a variety of spacecraft equipped with specific instruments for various scientific and technological missions. These include communications satellites like Starlink; space stations such as the ISS; scientific satellites like the Hubble; Earth observation satellites from companies like Planet Labs, Umbra, and HawkEye 360; GPS; miniature CubeSats for education and research; and military/defense satellites.

Loading next visibility...
Identifier
60366, 2024-138M
Orbit
LEO
Country
Flag of USUS
Related business
Manufacturer
SpaceX/Seattle
Mission
Operational Commercial Communications
Bus & Motor
STARLINK V2M, Unknown motor
Mass
730 kg wet, ~700 kg dry
Launch date (UTC)
2024-08-04 (2 years ago)
Launch vehicle
FALCON 9
Launch site
Air Force Western Test Range (AFWTR)
Object type
Payload
Rocket body
Debris
Shape & HBR
Box + 2 Pan, 17.7 m
Radar Cross Section
33.884 m², Large (>1 m²)

Expand to show TLE details & history
Last TLE update: 13 hours ago

TLE from 13 hours ago
0 STARLINK-32230
1 60366U 24138M   26258.12703416 -.00000106  00000-0  80022-5 0  9991
2 60366  53.1615 148.8135 0001379  82.9784 277.1376 15.34393535119647
Epoch: 2026-09-15T03:02Z
TLE epoch observation values (Epoch: 2026-09-15T03:02:55.751Z)
Latitude
0.00003°
Longitude
108.98378°
Altitude
463.507 km
Speed
7.636 km/s
True Right ascension
09h 55m 15s
True Declination
0° 00' 00"
Sunlit
Object was in daylight at epoch
Visualization orbit readout
Latitude
Unknown
Longitude
Unknown
Altitude
Unknown
Speed
Unknown
Apparent Right ascension
Unknown
Apparent Declination
Unknown
Sunlit
N/A
Visualization observer readout
Local Sidereal Time
08:41:02
Azimuth
Unknown
Elevation
Unknown
Doppler factor
Unknown
Orbital elements
Apogee altitude
463.922 km
Perigee altitude
462.036 km
Semi-major axis
6,841.116 km
Eccentricity
0.00014
Inclination
53.1615°
RAAN
148.8135°
Arg. of periapsis
82.9784°
True anomaly
277.12192°
Mean anomaly
277.1376°
Eccentric anomaly
277.12976°
Mean motion
3.83577 °/min
Orbital period
93.85 mins
BSTAR
0.0000080022
Loading maneuver chart data...
Computing Atmospheric mass density...
Loading historical data...
Loading historical data...
Loading historical data...
Loading historical data...
Loading historical data...
Loading historical data...
Loading historical data...

Documentation

Showing up to 5 results
|